Voltar ao catálogo

ONEWEB-0372

AtivoComunicaçõesPO
NORAD 49298·PAYLOAD·🇬🇧 United Kingdom

Lançado Oct 14, 2021 de Vostochny Cosmodrome

Loading…

Próximas Passagens (próximas 24 horas)

TLE

AtualizadoSource: CelesTrak SupGP

Época: Sep 14, 2026, 17:07 UTC

1 49298C 21090V   26257.71333333 -.00000932  00000+0 -22961-2 0  2576
2 49298  87.9135 256.5837 0002042  89.6847 301.9867 13.20768367    11

Acompanhe ONEWEB-0372 em tempo real com AllMySat

Download on the App Store